Location: Shenandoah County Park
(38.9356°N, 78.4524°W)
Time: 05:30:21
(UTC-04:00)

Transit 2A - Visible Passes

Search period start: 13 June 2024 00:00
Search period end: 23 June 2024 00:00
Orbit: 593 x 959 km, 66.7° (Epoch: 13 June)

Date Brightness Start Highest point End Pass type
(mag) Time Alt. Az. Time Alt. Az. Time Alt. Az.
13 Jun 8.9 01:49:30 10° N 01:53:22 17° NE 01:57:20 10° E visible
13 Jun 6.5 03:31:12 10° NNW 03:37:25 82° ENE 03:43:46 10° SSE visible
13 Jun 7.9 05:16:19 10° WNW 05:19:54 16° WSW 05:23:30 10° SW visible
14 Jun 9.1 01:15:11 10° NNE 01:17:45 13° NE 01:20:20 10° ENE visible
14 Jun 7.0 02:56:04 10° NNW 03:02:09 58° ENE 03:08:23 10° SE visible
14 Jun 7.5 04:40:07 10° NW 04:44:56 24° WSW 04:49:47 10° SSW visible
15 Jun 7.5 02:21:00 10° NNW 02:26:48 42° NE 02:32:46 10° SE visible
15 Jun 7.1 04:04:20 10° NW 04:09:54 35° WSW 04:13:45 18° SSW visible
16 Jun 8.0 01:46:01 10° N 01:51:24 30° NE 01:56:54 10° ESE visible
16 Jun 6.6 03:28:49 10° NW 03:34:48 50° WSW 03:37:41 30° S visible
17 Jun 8.4 01:11:10 10° N 01:15:55 23° NE 01:20:46 10° E visible
17 Jun 6.3 02:53:26 10° NNW 02:59:38 73° WSW 03:02:01 40° S visible
17 Jun 8.3 04:41:21 10° W 04:41:50 10° W 04:42:19 10° WSW visible
18 Jun 8.7 00:36:29 10° N 00:40:21 17° NE 00:44:16 10° E visible
18 Jun 6.4 02:18:11 10° NNW 02:24:25 81° ENE 02:26:38 43° SE visible
18 Jun 7.9 04:03:14 10° WNW 04:06:54 16° WSW 04:06:58 16° WSW visible
19 Jun 8.9 00:02:10 10° NNE 00:04:42 12° NE 00:07:15 10° ENE visible
19 Jun 6.9 01:43:02 10° NNW 01:49:08 57° ENE 01:51:26 37° ESE visible
19 Jun 7.6 03:27:02 10° NW 03:31:47 24° WSW 03:31:47 24° WSW visible
20 Jun 7.4 01:07:57 10° NNW 01:13:47 41° NE 01:16:23 28° ESE visible
20 Jun 7.1 02:51:17 10° NW 02:56:45 35° WSW 02:56:45 35° WSW visible
21 Jun 7.9 00:32:59 10° N 00:38:21 30° NE 00:41:27 20° E visible
21 Jun 6.6 02:15:45 10° NW 02:21:47 51° WSW 02:21:49 51° WSW visible
21 Jun 8.3 23:58:07 10° N 00:02:51 22° NE 00:06:36 14° E visible
22 Jun 6.3 01:40:22 10° NNW 01:46:37 74° WSW 01:46:59 72° SW visible
22 Jun 8.6 23:23:25 10° N 23:27:15 17° NE 23:31:09 10° E visible
